EZY37AR EGHI-EIDW

Flight info

Callsign EZY37AR
Flight time 0h 59m
Altitude 24000
Route SAM Q41 PEPIS Y321 NUBRI N14 HEKXA Q63 OZZIL N80 ARPAK L9 NICXI M17 VATRY VATRY4L
Aircraft A20N/M-SDE2E3FGHIRWXY/LB1

Departure

Time 2026-05-09 06:48
Airport Southampton Airport (EGHI)

Arrival

Time 2026-05-09 07:48
Airport Dublin Airport (EIDW)
Time Latitude Longitude Altitude Speed Heading
2026-05-09 06:18 50.94987 -1.36177 39 ft 0 kts 19°
2026-05-09 06:40 50.94976 -1.36183 39 ft 2 kts 22°
2026-05-09 06:41 50.94961 -1.36193 39 ft 2 kts 26°
2026-05-09 06:41 50.94947 -1.36206 39 ft 2 kts 40°
2026-05-09 06:41 50.94937 -1.36226 36 ft 2 kts 84°
2026-05-09 06:41 50.94938 -1.36247 37 ft 1 kts 107°
2026-05-09 06:42 50.94939 -1.36250 38 ft 0 kts 107°
2026-05-09 06:44 50.94937 -1.36240 37 ft 3 kts 108°
2026-05-09 06:44 50.94925 -1.36185 37 ft 8 kts 109°
2026-05-09 06:45 50.94897 -1.36061 37 ft 15 kts 115°
2026-05-09 06:45 50.94797 -1.36064 39 ft 19 kts 199°
2026-05-09 06:45 50.94661 -1.36137 39 ft 20 kts 193°
2026-05-09 06:45 50.94608 -1.36119 39 ft 4 kts 152°
2026-05-09 06:46 50.94578 -1.36046 38 ft 12 kts 112°
2026-05-09 06:46 50.94513 -1.35970 38 ft 14 kts 197°
2026-05-09 06:46 50.94392 -1.36033 37 ft 22 kts 197°
2026-05-09 06:46 50.94327 -1.36035 37 ft 4 kts 157°
2026-05-09 06:47 50.94301 -1.36069 38 ft 6 kts 283°
2026-05-09 06:47 50.94327 -1.36068 36 ft 1 kts 15°
2026-05-09 06:47 50.94357 -1.36052 37 ft 30 kts 19°
2026-05-09 06:48 50.94856 -1.35777 40 ft 117 kts 19°
2026-05-09 06:48 50.95752 -1.35276 476 ft 142 kts 19°
2026-05-09 06:48 50.96731 -1.34703 1178 ft 157 kts 22°
2026-05-09 06:48 50.97798 -1.34105 2030 ft 173 kts 23°
2026-05-09 06:49 50.99038 -1.33417 2520 ft 211 kts 22°
2026-05-09 06:49 51.00533 -1.32658 2611 ft 227 kts 18°
2026-05-09 06:49 51.02046 -1.32005 2683 ft 226 kts 17°
2026-05-09 06:49 51.03561 -1.31376 3087 ft 229 kts 17°
2026-05-09 06:50 51.05110 -1.30726 3941 ft 236 kts 17°
2026-05-09 06:50 51.06764 -1.30016 4638 ft 256 kts 17°
2026-05-09 06:50 51.08521 -1.29254 5527 ft 265 kts 17°
2026-05-09 06:50 51.09708 -1.28735 6186 ft 269 kts 17°
2026-05-09 06:51 51.12159 -1.27661 7482 ft 277 kts 16°
2026-05-09 06:51 51.14032 -1.26838 8469 ft 282 kts 15°
2026-05-09 06:51 51.15306 -1.26278 8684 ft 289 kts 15°
2026-05-09 06:51 51.17873 -1.25150 8857 ft 287 kts 15°
2026-05-09 06:52 51.19151 -1.24613 8930 ft 287 kts 12°
2026-05-09 06:52 51.21772 -1.24180 9085 ft 287 kts
2026-05-09 06:52 51.23778 -1.24037 9216 ft 290 kts
2026-05-09 06:52 51.25815 -1.23875 9559 ft 302 kts
2026-05-09 06:53 51.27996 -1.23697 9981 ft 325 kts
2026-05-09 06:53 51.30337 -1.23505 10396 ft 346 kts
2026-05-09 06:53 51.32761 -1.23487 11227 ft 349 kts 354°
2026-05-09 06:53 51.34277 -1.23814 11791 ft 351 kts 348°
2026-05-09 06:54 51.37347 -1.25339 12936 ft 355 kts 338°
2026-05-09 06:54 51.39665 -1.26754 13804 ft 359 kts 338°
2026-05-09 06:54 51.42016 -1.28174 14566 ft 364 kts 338°
2026-05-09 06:54 51.44400 -1.29611 15278 ft 369 kts 338°
2026-05-09 06:55 51.46820 -1.31070 15987 ft 374 kts 338°
2026-05-09 06:55 51.49243 -1.32655 16672 ft 378 kts 330°
2026-05-09 06:55 51.51345 -1.35188 17336 ft 382 kts 313°
2026-05-09 06:55 51.52879 -1.38678 18001 ft 386 kts 295°
2026-05-09 06:56 51.53852 -1.42699 18632 ft 390 kts 287°
2026-05-09 06:56 51.54670 -1.46816 19243 ft 394 kts 286°
2026-05-09 06:56 51.55490 -1.51038 19881 ft 398 kts 286°
2026-05-09 06:56 51.56342 -1.55294 20486 ft 402 kts 286°
2026-05-09 06:57 51.57224 -1.59566 21143 ft 405 kts 287°
2026-05-09 06:57 51.58095 -1.63892 21736 ft 408 kts 283°
2026-05-09 06:57 51.58680 -1.68367 22329 ft 410 kts 275°
2026-05-09 06:57 51.59010 -1.72938 22931 ft 413 kts 274°
2026-05-09 06:58 51.59343 -1.77543 23536 ft 417 kts 274°
2026-05-09 06:58 51.59684 -1.82198 24062 ft 420 kts 274°
2026-05-09 06:58 51.60022 -1.86821 24553 ft 424 kts 273°
2026-05-09 06:58 51.60362 -1.91520 25029 ft 427 kts 273°
2026-05-09 06:59 51.60704 -1.96291 25480 ft 431 kts 273°
2026-05-09 06:59 51.61044 -2.01084 25941 ft 434 kts 273°
2026-05-09 06:59 51.61388 -2.05948 26392 ft 438 kts 272°
2026-05-09 06:59 51.61730 -2.10832 26829 ft 441 kts 272°
2026-05-09 07:00 51.62063 -2.15600 27247 ft 444 kts 272°
2026-05-09 07:00 51.62406 -2.20555 27664 ft 447 kts 272°
2026-05-09 07:00 51.62750 -2.25546 28072 ft 450 kts 272°
2026-05-09 07:00 51.63094 -2.30567 28470 ft 453 kts 272°
2026-05-09 07:01 51.63437 -2.35623 28849 ft 456 kts 271°
2026-05-09 07:01 51.63807 -2.40707 29210 ft 460 kts 274°
2026-05-09 07:01 51.64487 -2.45793 29494 ft 469 kts 281°
2026-05-09 07:01 51.65481 -2.50822 29840 ft 473 kts 283°
2026-05-09 07:02 51.66496 -2.55883 30178 ft 476 kts 283°
2026-05-09 07:02 51.67495 -2.60916 30479 ft 479 kts 283°
2026-05-09 07:02 51.68507 -2.66039 30786 ft 481 kts 283°
2026-05-09 07:02 51.69520 -2.71191 31000 ft 483 kts 283°
2026-05-09 07:03 51.71550 -2.81540 31184 ft 484 kts 283°
2026-05-09 07:03 51.73571 -2.91898 31198 ft 484 kts 283°
2026-05-09 07:04 51.75582 -3.02260 31183 ft 484 kts 283°
2026-05-09 07:04 51.77566 -3.12541 31177 ft 480 kts 282°
2026-05-09 07:05 51.79539 -3.22813 31164 ft 479 kts 282°
2026-05-09 07:05 51.81253 -3.33172 31150 ft 474 kts 274°
2026-05-09 07:06 51.81935 -3.43705 31143 ft 471 kts 270°
2026-05-09 07:06 51.82596 -3.54170 31134 ft 474 kts 274°
2026-05-09 07:07 51.83937 -3.64648 31131 ft 476 kts 277°
2026-05-09 07:07 51.85294 -3.75124 31127 ft 476 kts 277°
2026-05-09 07:08 51.86637 -3.85600 31124 ft 475 kts 277°
2026-05-09 07:08 51.87969 -3.96081 31130 ft 475 kts 277°
2026-05-09 07:09 51.89283 -4.06490 31126 ft 475 kts 277°
2026-05-09 07:09 51.90598 -4.16979 31126 ft 475 kts 276°
2026-05-09 07:10 51.91903 -4.27468 31130 ft 475 kts 276°
2026-05-09 07:10 51.93198 -4.37959 31129 ft 475 kts 276°
2026-05-09 07:11 51.94473 -4.48373 31131 ft 474 kts 277°
2026-05-09 07:11 51.95747 -4.58858 31136 ft 474 kts 276°
2026-05-09 07:12 51.97007 -4.69299 31129 ft 471 kts 276°
2026-05-09 07:12 51.98255 -4.79734 31129 ft 471 kts 276°
2026-05-09 07:13 51.99495 -4.90181 31149 ft 471 kts 276°
2026-05-09 07:13 52.01225 -5.00143 31139 ft 480 kts 292°
2026-05-09 07:14 52.02976 -5.04796 31136 ft 486 kts 304°
2026-05-09 07:14 52.05283 -5.08836 31136 ft 491 kts 316°
2026-05-09 07:14 52.08061 -5.12102 31143 ft 496 kts 328°
2026-05-09 07:14 52.11172 -5.14570 31144 ft 498 kts 335°
2026-05-09 07:15 52.16473 -5.18233 31143 ft 498 kts 334°
2026-05-09 07:15 52.23736 -5.23792 31149 ft 497 kts 331°
2026-05-09 07:16 52.29912 -5.28836 31151 ft 497 kts 330°
2026-05-09 07:16 52.36083 -5.33929 31157 ft 497 kts 330°
2026-05-09 07:17 52.42217 -5.38998 30996 ft 484 kts 330°
2026-05-09 07:17 52.45191 -5.41457 30388 ft 475 kts 330°
2026-05-09 07:17 52.48118 -5.43884 29516 ft 468 kts 330°
2026-05-09 07:18 52.50954 -5.46240 28662 ft 459 kts 330°
2026-05-09 07:18 52.53864 -5.48311 27799 ft 454 kts 339°
2026-05-09 07:18 52.56906 -5.49560 26935 ft 449 kts 349°
2026-05-09 07:18 52.60001 -5.49979 26136 ft 444 kts 359°
2026-05-09 07:19 52.63063 -5.49952 25310 ft 437 kts 358°
2026-05-09 07:19 52.66082 -5.49952 24561 ft 430 kts 357°
2026-05-09 07:19 52.69043 -5.49960 23843 ft 422 kts 357°
2026-05-09 07:19 52.70974 -5.49963 23255 ft 418 kts 356°
2026-05-09 07:20 52.74813 -5.49966 22175 ft 407 kts 356°
2026-05-09 07:20 52.77580 -5.49966 21364 ft 400 kts 356°
2026-05-09 07:20 52.80339 -5.49967 20567 ft 393 kts 356°
2026-05-09 07:20 52.83048 -5.49970 19821 ft 386 kts 356°
2026-05-09 07:21 52.85711 -5.49970 19076 ft 379 kts 355°
2026-05-09 07:21 52.88325 -5.49970 18339 ft 373 kts 355°
2026-05-09 07:21 52.90911 -5.49973 17377 ft 370 kts 356°
2026-05-09 07:21 52.93473 -5.49977 16530 ft 366 kts 356°
2026-05-09 07:22 52.95973 -5.49979 16138 ft 350 kts 356°
2026-05-09 07:22 52.98303 -5.49975 15939 ft 330 kts 355°
2026-05-09 07:22 53.00533 -5.49970 15761 ft 311 kts 355°
2026-05-09 07:22 53.02634 -5.49972 15600 ft 293 kts 356°
2026-05-09 07:23 53.04612 -5.49973 15453 ft 276 kts 355°
2026-05-09 07:23 53.06474 -5.49971 15265 ft 260 kts 354°
2026-05-09 07:23 53.08263 -5.49977 14850 ft 256 kts 355°
2026-05-09 07:23 53.10038 -5.49988 14366 ft 255 kts 355°
2026-05-09 07:24 53.11813 -5.49995 13859 ft 254 kts 354°
2026-05-09 07:24 53.13558 -5.50001 13346 ft 253 kts 356°
2026-05-09 07:24 53.15310 -5.50012 12854 ft 251 kts 357°
2026-05-09 07:24 53.17067 -5.50015 12157 ft 258 kts 357°
2026-05-09 07:25 53.18905 -5.50020 11325 ft 270 kts 357°
2026-05-09 07:25 53.20795 -5.50024 10761 ft 271 kts 358°
2026-05-09 07:25 53.22651 -5.50022 10524 ft 261 kts 358°
2026-05-09 07:25 53.24510 -5.50018 10432 ft 272 kts 358°
2026-05-09 07:26 53.26406 -5.50017 10334 ft 270 kts 358°
2026-05-09 07:26 53.28271 -5.50015 10226 ft 267 kts 358°
2026-05-09 07:26 53.29494 -5.50014 10202 ft 266 kts 358°
2026-05-09 07:26 53.31988 -5.50013 10205 ft 274 kts 358°
2026-05-09 07:27 53.33878 -5.50012 10199 ft 268 kts 358°
2026-05-09 07:27 53.35107 -5.50011 10204 ft 266 kts 358°
2026-05-09 07:27 53.37614 -5.50009 10204 ft 271 kts 358°
2026-05-09 07:27 53.38865 -5.50007 10208 ft 272 kts 358°
2026-05-09 07:28 53.40744 -5.50008 10211 ft 268 kts 358°
2026-05-09 07:28 53.42607 -5.50008 10208 ft 269 kts 358°
2026-05-09 07:28 53.45098 -5.50005 10211 ft 272 kts 358°
2026-05-09 07:28 53.47099 -5.50008 10210 ft 306 kts 358°
2026-05-09 07:29 53.49311 -5.50012 10191 ft 326 kts 358°
2026-05-09 07:29 53.51596 -5.50010 10036 ft 331 kts 358°
2026-05-09 07:29 53.53896 -5.50009 9735 ft 330 kts 359°
2026-05-09 07:29 53.55411 -5.50009 9418 ft 329 kts 359°
2026-05-09 07:30 53.58411 -5.50048 9142 ft 313 kts 353°
2026-05-09 07:30 53.59797 -5.50542 9059 ft 302 kts 339°
2026-05-09 07:30 53.62010 -5.53002 8907 ft 281 kts 310°
2026-05-09 07:30 53.63008 -5.55701 8776 ft 265 kts 290°
2026-05-09 07:31 53.63323 -5.57673 8666 ft 252 kts 277°
2026-05-09 07:31 53.63309 -5.61438 8355 ft 234 kts 266°
2026-05-09 07:31 53.63145 -5.64189 8263 ft 242 kts 253°
2026-05-09 07:31 53.62671 -5.65878 8200 ft 242 kts 232°
2026-05-09 07:32 53.61384 -5.67626 8107 ft 241 kts 201°
2026-05-09 07:32 53.59741 -5.67999 8010 ft 240 kts 171°
2026-05-09 07:32 53.58226 -5.66874 7978 ft 243 kts 139°
2026-05-09 07:32 53.57170 -5.64655 7971 ft 242 kts 127°
2026-05-09 07:33 53.56057 -5.62691 7972 ft 223 kts 141°
2026-05-09 07:33 53.53518 -5.59821 7975 ft 220 kts 150°
2026-05-09 07:33 53.52216 -5.58528 7973 ft 221 kts 150°
2026-05-09 07:34 53.50891 -5.57216 7970 ft 221 kts 150°
2026-05-09 07:34 53.49562 -5.55926 7969 ft 221 kts 154°
2026-05-09 07:34 53.48113 -5.55093 7970 ft 220 kts 169°
2026-05-09 07:34 53.46605 -5.54702 7970 ft 219 kts 172°
2026-05-09 07:35 53.45094 -5.54304 7968 ft 220 kts 172°
2026-05-09 07:35 53.43582 -5.53892 7970 ft 220 kts 171°
2026-05-09 07:35 53.42069 -5.53475 7970 ft 220 kts 171°
2026-05-09 07:35 53.40578 -5.53067 7967 ft 220 kts 173°
2026-05-09 07:36 53.39049 -5.53044 7969 ft 220 kts 187°
2026-05-09 07:36 53.37558 -5.53575 7967 ft 219 kts 193°
2026-05-09 07:36 53.36066 -5.54156 7967 ft 220 kts 193°
2026-05-09 07:36 53.34568 -5.54724 7967 ft 220 kts 193°
2026-05-09 07:37 53.33078 -5.55281 7973 ft 219 kts 193°
2026-05-09 07:37 53.31613 -5.55828 7967 ft 221 kts 193°
2026-05-09 07:37 53.30166 -5.56607 7901 ft 217 kts 205°
2026-05-09 07:37 53.28883 -5.57893 7552 ft 215 kts 214°
2026-05-09 07:38 53.27655 -5.59299 6986 ft 219 kts 214°
2026-05-09 07:38 53.26392 -5.60733 6459 ft 219 kts 214°
2026-05-09 07:38 53.25178 -5.62102 6277 ft 203 kts 215°
2026-05-09 07:38 53.24272 -5.63816 5897 ft 197 kts 247°
2026-05-09 07:39 53.24138 -5.66040 5385 ft 195 kts 287°
2026-05-09 07:39 53.24812 -5.67923 4886 ft 189 kts 316°
2026-05-09 07:39 53.25735 -5.69471 4448 ft 186 kts 319°
2026-05-09 07:39 53.26653 -5.70979 4015 ft 184 kts 319°
2026-05-09 07:40 53.27541 -5.72462 3598 ft 182 kts 319°
2026-05-09 07:40 53.28405 -5.73944 3323 ft 172 kts 321°
2026-05-09 07:40 53.29260 -5.75411 3247 ft 183 kts 319°
2026-05-09 07:40 53.30135 -5.76920 3219 ft 179 kts 320°
2026-05-09 07:41 53.30984 -5.78405 3222 ft 175 kts 321°
2026-05-09 07:41 53.31838 -5.79882 3222 ft 177 kts 321°
2026-05-09 07:41 53.32681 -5.81325 3225 ft 180 kts 321°
2026-05-09 07:41 53.33544 -5.82811 3222 ft 175 kts 319°
2026-05-09 07:42 53.34372 -5.84257 3225 ft 171 kts 321°
2026-05-09 07:42 53.35208 -5.85702 3229 ft 176 kts 319°
2026-05-09 07:42 53.36043 -5.87140 3225 ft 173 kts 320°
2026-05-09 07:42 53.36882 -5.88593 3224 ft 173 kts 320°
2026-05-09 07:43 53.37721 -5.90051 3228 ft 172 kts 321°
2026-05-09 07:43 53.38545 -5.91494 3224 ft 173 kts 320°
2026-05-09 07:43 53.39379 -5.92944 3235 ft 172 kts 320°
2026-05-09 07:43 53.40062 -5.94582 3235 ft 180 kts 302°
2026-05-09 07:44 53.40438 -5.96602 3235 ft 184 kts 286°
2026-05-09 07:44 53.40563 -5.98004 3234 ft 183 kts 282°
2026-05-09 07:44 53.40715 -6.00893 3147 ft 186 kts 282°
2026-05-09 07:44 53.40832 -6.03009 2907 ft 183 kts 280°
2026-05-09 07:45 53.40942 -6.05107 2658 ft 181 kts 281°
2026-05-09 07:45 53.41059 -6.07191 2420 ft 179 kts 280°
2026-05-09 07:45 53.41170 -6.09294 2160 ft 183 kts 283°
2026-05-09 07:45 53.41287 -6.11403 1909 ft 181 kts 283°
2026-05-09 07:46 53.41397 -6.13467 1660 ft 174 kts 283°
2026-05-09 07:46 53.41510 -6.15497 1422 ft 175 kts 283°
2026-05-09 07:46 53.41617 -6.17506 1163 ft 172 kts 282°
2026-05-09 07:46 53.41728 -6.19500 899 ft 172 kts 279°
2026-05-09 07:47 53.41832 -6.21466 661 ft 170 kts 281°
2026-05-09 07:47 53.41940 -6.23391 455 ft 170 kts 278°
2026-05-09 07:47 53.42037 -6.25380 255 ft 170 kts 281°
2026-05-09 07:47 53.42144 -6.27228 227 ft 126 kts 280°
2026-05-09 07:48 53.42190 -6.28016 235 ft 26 kts 278°
2026-05-09 07:48 53.42263 -6.28254 230 ft 15 kts 309°
2026-05-09 07:48 53.42322 -6.28321 226 ft 0 kts 355°
2026-05-09 07:49 53.42323 -6.28321 226 ft 1 kts 356°
2026-05-09 07:49 53.42344 -6.28308 227 ft 5 kts 25°
2026-05-09 07:49 53.42371 -6.28246 225 ft 8 kts 77°
2026-05-09 07:50 53.42368 -6.28132 225 ft 12 kts 95°
2026-05-09 07:50 53.42358 -6.27949 225 ft 20 kts 95°
2026-05-09 07:50 53.42342 -6.27665 225 ft 28 kts 96°
2026-05-09 07:50 53.42325 -6.27327 225 ft 30 kts 96°
2026-05-09 07:51 53.42306 -6.26984 226 ft 28 kts 95°
2026-05-09 07:51 53.42290 -6.26693 225 ft 24 kts 95°
2026-05-09 07:51 53.42275 -6.26424 225 ft 22 kts 94°
2026-05-09 07:51 53.42260 -6.26161 225 ft 24 kts 95°
2026-05-09 07:52 53.42250 -6.25870 224 ft 26 kts 92°
2026-05-09 07:52 53.42230 -6.25577 224 ft 21 kts 96°
2026-05-09 07:52 53.42216 -6.25359 224 ft 19 kts 97°
2026-05-09 07:52 53.42214 -6.25332 223 ft 0 kts 96°
2026-05-09 07:53 53.42212 -6.25293 223 ft 7 kts 96°
2026-05-09 07:53 53.42204 -6.25169 218 ft 16 kts 95°
2026-05-09 07:53 53.42231 -6.25003 223 ft 13 kts 52°
2026-05-09 07:54 53.42294 -6.24887 224 ft 14 kts 46°
2026-05-09 07:54 53.42368 -6.24761 224 ft 16 kts 47°
2026-05-09 07:54 53.42432 -6.24606 226 ft 15 kts 60°
2026-05-09 07:54 53.42483 -6.24460 225 ft 13 kts 51°
2026-05-09 07:55 53.42487 -6.24381 225 ft 7 kts 120°
2026-05-09 07:55 53.42466 -6.24344 225 ft 0 kts 135°